Location: Adelaide
(34.9286°S, 138.6000°E)
Time: 11:18:41
(UTC+10:30)

Hubble Space Telescope - Pass Details

Date: 11 May 2015
Orbit: 536 x 540 km, 28.5° (Epoch: 20 October)

Event Time Altitude Azimuth Distance (km) Brightness Sun altitude
Exits shadow 06:19:50 - 287° (WNW) 2,082 3.3 -8.5°
Reaches altitude 10° 06:20:37 10° 292° (WNW) 1,802 3.0 -8.3°
Maximum altitude 06:24:21 32° 355° (N) 941 2.1 -7.6°
Drops below altitude 10° 06:28:06 10° 59° (ENE) 1,804 5.0 -6.9°
Sets 06:30:32 0° 69° (ENE) 2,697 7.0 -6.4°
